Time,TemperatureF,DewpointF,PressureIn,WindDirection,WindDirectionDegrees,WindSpeedMPH,WindSpeedGustMPH,Humidity,HourlyPrecipIn,Conditions,Clouds,dailyrainin,SoftwareType,DateUTC
2013-08-28 00:01:00,69.4,68.8,29.87,SE,127,0.0,3.0,98,0.00,,,0.00,Wunderground v.1.15,2013-08-28 04:01:00,
2013-08-28 00:02:00,69.4,68.8,29.87,SE,127,0.0,3.0,98,0.00,,,0.00,Wunderground v.1.15,2013-08-28 04:02:00,
2013-08-28 00:03:00,69.4,68.8,29.87,SE,127,0.0,3.0,98,0.00,,,0.00,Wunderground v.1.15,2013-08-28 04:03:00,
2013-08-28 00:04:00,69.4,68.8,29.87,SE,125,0.0,3.0,98,0.00,,,0.00,Wunderground v.1.15,2013-08-28 04:04:00,
2013-08-28 00:08:00,69.4,68.8,29.87,SE,126,0.0,3.0,98,0.00,,,0.00,Wunderground v.1.15,2013-08-28 04:08:00,
2013-08-28 00:13:00,69.4,68.8,29.87,SE,126,0.0,3.0,98,0.00,,,0.00,Wunderground v.1.15,2013-08-28 04:13:00,
2013-08-28 00:18:00,69.3,68.7,29.87,SE,126,0.0,3.0,98,0.00,,,0.00,Wunderground v.1.15,2013-08-28 04:18:00,
2013-08-28 00:23:00,69.3,68.7,29.86,SE,125,0.0,3.0,98,0.00,,,0.00,Wunderground v.1.15,2013-08-28 04:23:00,
2013-08-28 00:29:00,69.3,68.7,29.86,SE,125,0.0,3.0,98,0.00,,,0.00,Wunderground v.1.15,2013-08-28 04:29:00,
2013-08-28 00:34:00,69.3,68.7,29.86,SE,126,0.0,3.0,98,0.00,,,0.00,Wunderground v.1.15,2013-08-28 04:34:00,
2013-08-28 00:39:00,69.3,68.7,29.86,SE,125,0.0,3.0,98,0.00,,,0.00,Wunderground v.1.15,2013-08-28 04:39:00,
2013-08-28 00:45:00,69.3,68.7,29.86,SE,125,0.0,3.0,98,0.00,,,0.00,Wunderground v.1.15,2013-08-28 04:45:00,
2013-08-28 00:50:00,69.3,68.7,29.86,SE,126,0.0,3.0,98,0.00,,,0.00,Wunderground v.1.15,2013-08-28 04:50:00,
2013-08-28 00:55:00,69.3,68.7,29.85,SE,125,0.0,3.0,98,0.00,,,0.00,Wunderground v.1.15,2013-08-28 04:55:00,
2013-08-28 01:01:00,69.2,68.6,29.85,SE,125,0.0,3.0,98,0.00,,,0.00,Wunderground v.1.15,2013-08-28 05:01:00,
2013-08-28 01:06:00,69.2,68.6,29.85,SE,125,0.0,3.0,98,0.00,,,0.00,Wunderground v.1.15,2013-08-28 05:06:00,
2013-08-28 01:11:00,69.2,68.6,29.86,SE,126,0.0,3.0,98,0.00,,,0.00,Wunderground v.1.15,2013-08-28 05:11:00,
2013-08-28 01:17:00,69.2,68.6,29.85,SE,125,0.0,3.0,98,0.00,,,0.00,Wunderground v.1.15,2013-08-28 05:17:00,
2013-08-28 01:22:00,69.2,68.6,29.85,SE,125,0.0,3.0,98,0.00,,,0.00,Wunderground v.1.15,2013-08-28 05:22:00,
2013-08-28 01:27:00,69.2,68.6,29.85,SE,125,0.0,3.0,98,0.00,,,0.00,Wunderground v.1.15,2013-08-28 05:27:00,
2013-08-28 01:32:00,69.2,68.6,29.85,SE,125,0.0,3.0,98,0.00,,,0.00,Wunderground v.1.15,2013-08-28 05:32:00,
2013-08-28 01:38:00,69.2,68.6,29.84,SE,125,0.0,3.0,98,0.00,,,0.00,Wunderground v.1.15,2013-08-28 05:38:00,
2013-08-28 01:43:00,69.2,68.6,29.84,SE,125,0.0,3.0,98,0.00,,,0.00,Wunderground v.1.15,2013-08-28 05:43:00,
2013-08-28 01:48:00,69.2,68.6,29.84,SE,125,0.0,3.0,98,0.00,,,0.00,Wunderground v.1.15,2013-08-28 05:48:00,
2013-08-28 01:54:00,69.2,68.6,29.84,SE,127,0.0,3.0,98,0.00,,,0.00,Wunderground v.1.15,2013-08-28 05:54:00,
2013-08-28 01:59:00,69.2,68.6,29.84,SE,126,0.0,3.0,98,0.00,,,0.00,Wunderground v.1.15,2013-08-28 05:59:00,
2013-08-28 02:04:00,69.2,68.6,29.84,SE,125,0.0,3.0,98,0.00,,,0.00,Wunderground v.1.15,2013-08-28 06:04:00,
2013-08-28 02:09:00,69.2,68.6,29.83,East,80,0.0,3.0,98,0.00,,,0.00,Wunderground v.1.15,2013-08-28 06:09:00,
2013-08-28 02:15:00,69.2,68.6,29.84,East,81,0.0,3.0,98,0.00,,,0.00,Wunderground v.1.15,2013-08-28 06:15:00,
2013-08-28 02:20:00,69.2,68.6,29.83,East,80,0.0,3.0,98,0.00,,,0.00,Wunderground v.1.15,2013-08-28 06:20:00,
2013-08-28 02:26:00,69.3,68.7,29.83,East,81,0.0,3.0,98,0.00,,,0.00,Wunderground v.1.15,2013-08-28 06:26:00,
2013-08-28 02:31:00,69.3,68.7,29.84,East,81,0.0,3.0,98,0.00,,,0.00,Wunderground v.1.15,2013-08-28 06:31:00,
2013-08-28 02:36:00,69.4,68.8,29.84,East,81,0.0,3.0,98,0.00,,,0.00,Wunderground v.1.15,2013-08-28 06:36:00,
2013-08-28 02:42:00,69.4,68.8,29.83,East,81,0.0,3.0,98,0.00,,,0.00,Wunderground v.1.15,2013-08-28 06:42:00,
2013-08-28 02:47:00,69.3,68.7,29.83,East,81,0.0,3.0,98,0.00,,,0.00,Wunderground v.1.15,2013-08-28 06:47:00,
2013-08-28 02:52:00,69.3,68.7,29.83,East,81,0.0,3.0,98,0.00,,,0.00,Wunderground v.1.15,2013-08-28 06:52:00,
2013-08-28 02:57:00,69.4,68.8,29.83,East,81,0.0,3.0,98,0.00,,,0.00,Wunderground v.1.15,2013-08-28 06:57:00,
2013-08-28 03:03:00,69.4,68.8,29.82,East,81,0.0,3.0,98,0.00,,,0.00,Wunderground v.1.15,2013-08-28 07:03:00,
2013-08-28 03:08:00,69.4,68.8,29.82,East,80,0.0,3.0,98,0.00,,,0.00,Wunderground v.1.15,2013-08-28 07:08:00,
2013-08-28 03:13:00,69.4,68.8,29.81,East,80,0.0,3.0,98,0.00,,,0.00,Wunderground v.1.15,2013-08-28 07:13:00,
2013-08-28 03:18:00,69.4,68.8,29.81,East,91,0.0,3.0,98,0.00,,,0.00,Wunderground v.1.15,2013-08-28 07:18:00,
2013-08-28 03:23:00,69.3,68.7,29.81,East,92,0.0,3.0,98,0.00,,,0.00,Wunderground v.1.15,2013-08-28 07:23:00,
2013-08-28 03:29:00,69.3,68.7,29.81,East,92,0.0,3.0,98,0.00,,,0.00,Wunderground v.1.15,2013-08-28 07:29:00,
2013-08-28 03:34:00,69.3,68.7,29.81,East,91,0.0,3.0,98,0.00,,,0.00,Wunderground v.1.15,2013-08-28 07:34:00,
2013-08-28 03:39:00,69.3,68.7,29.80,East,91,0.0,3.0,98,0.00,,,0.00,Wunderground v.1.15,2013-08-28 07:39:00,
2013-08-28 03:44:00,69.3,68.7,29.80,East,92,0.0,3.0,98,0.00,,,0.00,Wunderground v.1.15,2013-08-28 07:44:00,
2013-08-28 03:49:00,69.3,68.7,29.80,East,92,0.0,3.0,98,0.00,,,0.00,Wunderground v.1.15,2013-08-28 07:49:00,
2013-08-28 03:55:00,69.3,68.7,29.80,East,92,0.0,3.0,98,0.00,,,0.00,Wunderground v.1.15,2013-08-28 07:55:00,
2013-08-28 04:00:00,69.3,68.7,29.80,East,91,0.0,3.0,98,0.00,,,0.00,Wunderground v.1.15,2013-08-28 08:00:00,
2013-08-28 04:05:00,69.2,68.6,29.81,East,92,0.0,3.0,98,0.00,,,0.00,Wunderground v.1.15,2013-08-28 08:05:00,
2013-08-28 04:10:00,69.3,68.7,29.80,East,91,0.0,3.0,98,0.00,,,0.00,Wunderground v.1.15,2013-08-28 08:10:00,
2013-08-28 04:15:00,69.2,68.6,29.80,East,92,0.0,3.0,98,0.00,,,0.00,Wunderground v.1.15,2013-08-28 08:15:00,
2013-08-28 04:21:00,69.2,68.6,29.80,East,91,0.0,3.0,98,0.00,,,0.00,Wunderground v.1.15,2013-08-28 08:21:00,
2013-08-28 04:26:00,69.2,68.6,29.81,East,92,0.0,3.0,98,0.00,,,0.00,Wunderground v.1.15,2013-08-28 08:26:00,
2013-08-28 04:31:00,69.1,68.5,29.81,East,92,0.0,3.0,98,0.00,,,0.00,Wunderground v.1.15,2013-08-28 08:31:00,
2013-08-28 04:36:00,69.1,68.5,29.81,East,91,0.0,3.0,98,0.00,,,0.00,Wunderground v.1.15,2013-08-28 08:36:00,
2013-08-28 04:41:00,69.0,68.4,29.81,East,92,0.0,3.0,98,0.00,,,0.00,Wunderground v.1.15,2013-08-28 08:41:00,
2013-08-28 04:46:00,68.9,68.3,29.81,East,91,0.0,3.0,98,0.00,,,0.00,Wunderground v.1.15,2013-08-28 08:46:00,
2013-08-28 04:52:00,68.9,68.3,29.81,East,92,0.0,3.0,98,0.00,,,0.00,Wunderground v.1.15,2013-08-28 08:52:00,
2013-08-28 04:57:00,68.9,68.3,29.81,East,91,0.0,3.0,98,0.00,,,0.00,Wunderground v.1.15,2013-08-28 08:57:00,
2013-08-28 05:02:00,68.9,68.3,29.81,East,92,0.0,3.0,98,0.00,,,0.00,Wunderground v.1.15,2013-08-28 09:02:00,
2013-08-28 05:07:00,68.9,68.3,29.81,East,92,0.0,3.0,98,0.00,,,0.00,Wunderground v.1.15,2013-08-28 09:07:00,
2013-08-28 05:13:00,69.0,68.4,29.81,East,91,0.0,3.0,98,0.00,,,0.00,Wunderground v.1.15,2013-08-28 09:13:00,
2013-08-28 05:18:00,69.0,68.4,29.81,East,92,0.0,3.0,98,0.00,,,0.00,Wunderground v.1.15,2013-08-28 09:18:00,
2013-08-28 05:23:00,69.0,68.4,29.81,East,92,0.0,3.0,98,0.00,,,0.00,Wunderground v.1.15,2013-08-28 09:23:00,
2013-08-28 05:28:00,69.1,68.8,29.81,East,92,0.0,3.0,99,0.00,,,0.00,Wunderground v.1.15,2013-08-28 09:28:00,
2013-08-28 05:33:00,69.1,68.8,29.81,SW,215,0.0,3.0,99,0.00,,,0.00,Wunderground v.1.15,2013-08-28 09:33:00,
2013-08-28 05:38:00,69.1,68.8,29.81,SSE,154,0.0,3.0,99,0.00,,,0.00,Wunderground v.1.15,2013-08-28 09:38:00,
2013-08-28 05:44:00,69.1,68.8,29.81,SSE,154,0.0,3.0,99,0.00,,,0.00,Wunderground v.1.15,2013-08-28 09:44:00,
2013-08-28 05:49:00,69.1,68.8,29.81,SSE,153,0.0,3.0,99,0.00,,,0.00,Wunderground v.1.15,2013-08-28 09:49:00,
2013-08-28 05:54:00,69.1,68.5,29.81,SSE,153,0.0,3.0,98,0.00,,,0.01,Wunderground v.1.15,2013-08-28 09:54:00,
2013-08-28 05:59:00,69.1,68.5,29.81,SSE,153,0.0,3.0,98,0.00,,,0.01,Wunderground v.1.15,2013-08-28 09:59:00,
2013-08-28 06:05:00,69.1,68.5,29.81,SSE,153,0.0,3.0,98,0.00,,,0.01,Wunderground v.1.15,2013-08-28 10:05:00,
2013-08-28 06:10:00,69.0,68.4,29.80,SE,134,0.0,3.0,98,0.00,,,0.01,Wunderground v.1.15,2013-08-28 10:10:00,
2013-08-28 06:15:00,69.0,68.4,29.81,SE,134,0.0,3.0,98,0.00,,,0.01,Wunderground v.1.15,2013-08-28 10:15:00,
2013-08-28 06:20:00,69.0,68.4,29.80,SE,124,0.0,3.0,98,0.00,,,0.02,Wunderground v.1.15,2013-08-28 10:20:00,
2013-08-28 06:25:00,69.0,68.7,29.80,South,176,0.0,3.0,99,0.00,,,0.02,Wunderground v.1.15,2013-08-28 10:25:00,
2013-08-28 06:31:00,69.0,68.7,29.81,SSE,166,0.0,3.0,99,0.05,,,0.04,Wunderground v.1.15,2013-08-28 10:31:00,
2013-08-28 06:36:00,69.0,68.7,29.81,SSE,165,0.0,3.0,99,0.10,,,0.05,Wunderground v.1.15,2013-08-28 10:36:00,
2013-08-28 06:41:00,69.0,68.7,29.80,SSE,165,0.0,3.0,99,0.08,,,0.05,Wunderground v.1.15,2013-08-28 10:41:00,
2013-08-28 06:46:00,69.0,68.7,29.80,SE,124,0.0,3.0,99,0.06,,,0.06,Wunderground v.1.15,2013-08-28 10:46:00,
2013-08-28 06:51:00,69.0,68.7,29.81,SE,127,0.0,3.0,99,0.06,,,0.06,Wunderground v.1.15,2013-08-28 10:51:00,
2013-08-28 06:56:00,69.0,68.7,29.81,SE,127,0.0,3.0,99,0.05,,,0.06,Wunderground v.1.15,2013-08-28 10:56:00,
2013-08-28 07:02:00,69.1,68.8,29.81,SE,127,0.0,3.0,99,0.00,,,0.06,Wunderground v.1.15,2013-08-28 11:02:00,
2013-08-28 07:07:00,69.1,68.8,29.81,SE,124,0.0,3.0,99,0.00,,,0.06,Wunderground v.1.15,2013-08-28 11:07:00,
2013-08-28 07:12:00,69.1,68.8,29.81,SE,124,0.0,3.0,99,0.00,,,0.08,Wunderground v.1.15,2013-08-28 11:12:00,
2013-08-28 07:17:00,69.2,68.9,29.81,SE,124,0.0,3.0,99,0.00,,,0.08,Wunderground v.1.15,2013-08-28 11:17:00,
2013-08-28 07:23:00,69.3,69.0,29.80,SSE,165,0.0,3.0,99,0.07,,,0.09,Wunderground v.1.15,2013-08-28 11:23:00,
2013-08-28 07:28:00,69.4,69.1,29.80,SSE,165,0.0,3.0,99,0.07,,,0.09,Wunderground v.1.15,2013-08-28 11:28:00,
2013-08-28 07:33:00,69.4,69.1,29.80,SSW,198,0.0,3.0,99,0.06,,,0.10,Wunderground v.1.15,2013-08-28 11:33:00,
2013-08-28 07:38:00,69.5,69.2,29.80,WSW,245,0.0,3.0,99,0.08,,,0.12,Wunderground v.1.15,2013-08-28 11:38:00,
2013-08-28 07:44:00,69.6,69.3,29.80,SE,140,0.0,3.0,99,0.11,,,0.13,Wunderground v.1.15,2013-08-28 11:44:00,
2013-08-28 07:49:00,69.6,69.3,29.79,SE,139,0.0,3.0,99,0.14,,,0.14,Wunderground v.1.15,2013-08-28 11:49:00,
2013-08-28 07:54:00,69.7,69.4,29.80,SE,139,0.0,0.0,99,0.08,,,0.14,Wunderground v.1.15,2013-08-28 11:54:00,
2013-08-28 08:00:00,69.9,69.6,29.80,SE,140,0.0,0.0,99,0.05,,,0.14,Wunderground v.1.15,2013-08-28 12:00:00,
2013-08-28 08:05:00,69.9,69.6,29.79,SSE,158,0.0,0.0,99,0.05,,,0.16,Wunderground v.1.15,2013-08-28 12:05:00,
2013-08-28 08:10:00,70.0,69.7,29.80,SSW,208,0.0,0.0,99,0.49,,,0.18,Wunderground v.1.15,2013-08-28 12:10:00,
2013-08-28 08:15:00,69.9,69.6,29.79,SW,228,0.0,0.0,99,0.23,,,0.22,Wunderground v.1.15,2013-08-28 12:15:00,
2013-08-28 08:20:00,69.9,69.6,29.78,South,183,0.0,0.0,99,0.10,,,0.22,Wunderground v.1.15,2013-08-28 12:20:00,
2013-08-28 08:25:00,69.9,69.6,29.79,SSW,208,0.0,2.0,99,0.09,,,0.24,Wunderground v.1.15,2013-08-28 12:25:00,
2013-08-28 08:30:00,69.9,69.6,29.80,SW,236,0.0,0.0,99,0.06,,,0.24,Wunderground v.1.15,2013-08-28 12:30:00,
2013-08-28 08:35:00,69.8,69.5,29.80,SW,236,1.0,3.0,99,0.04,,,0.25,Wunderground v.1.15,2013-08-28 12:35:00,
2013-08-28 08:41:00,69.7,69.4,29.80,SSW,212,0.0,1.0,99,0.16,,,0.28,Wunderground v.1.15,2013-08-28 12:41:00,
2013-08-28 08:46:00,69.7,69.4,29.79,SSW,212,0.0,1.0,99,0.11,,,0.28,Wunderground v.1.15,2013-08-28 12:46:00,
2013-08-28 08:51:00,69.8,69.5,29.79,ESE,102,0.0,1.0,99,0.09,,,0.29,Wunderground v.1.15,2013-08-28 12:51:00,
2013-08-28 08:56:00,69.9,69.6,29.79,ESE,106,0.0,1.0,99,0.07,,,0.29,Wunderground v.1.15,2013-08-28 12:56:00,
2013-08-28 09:02:00,69.9,69.6,29.78,ESE,106,0.0,1.0,99,0.10,,,0.30,Wunderground v.1.15,2013-08-28 13:02:00,
2013-08-28 09:07:00,69.9,69.6,29.78,ESE,106,0.0,1.0,99,0.10,,,0.32,Wunderground v.1.15,2013-08-28 13:07:00,
2013-08-28 09:12:00,69.9,69.6,29.79,WSW,256,0.0,1.0,99,0.08,,,0.33,Wunderground v.1.15,2013-08-28 13:12:00,
2013-08-28 09:17:00,70.0,69.7,29.79,SW,231,0.0,1.0,99,0.07,,,0.33,Wunderground v.1.15,2013-08-28 13:17:00,
2013-08-28 09:28:00,70.3,70.0,29.80,SW,231,0.0,1.0,99,0.00,,,0.33,Wunderground v.1.15,2013-08-28 13:28:00,
2013-08-28 09:31:00,70.3,70.0,29.79,SW,229,0.0,1.0,99,0.00,,,0.33,Wunderground v.1.15,2013-08-28 13:31:00,
2013-08-28 09:38:00,70.3,70.0,29.78,East,98,0.0,1.0,99,0.00,,,0.33,Wunderground v.1.15,2013-08-28 13:38:00,
2013-08-28 09:44:00,70.3,70.0,29.79,East,91,0.0,1.0,99,0.00,,,0.33,Wunderground v.1.15,2013-08-28 13:44:00,
2013-08-28 09:49:00,70.2,69.6,29.79,West,262,0.0,0.0,98,0.00,,,0.33,Wunderground v.1.15,2013-08-28 13:49:00,
2013-08-28 09:54:00,70.2,69.6,29.79,SW,229,0.0,1.0,98,0.00,,,0.34,Wunderground v.1.15,2013-08-28 13:54:00,
2013-08-28 09:59:00,70.2,69.6,29.79,East,86,0.0,0.0,98,0.12,,,0.36,Wunderground v.1.15,2013-08-28 13:59:00,
2013-08-28 10:05:00,70.3,69.7,29.79,East,82,0.0,1.0,98,0.06,,,0.36,Wunderground v.1.15,2013-08-28 14:05:00,
2013-08-28 10:10:00,70.3,69.7,29.78,East,82,0.0,0.0,98,0.04,,,0.36,Wunderground v.1.15,2013-08-28 14:10:00,
2013-08-28 10:15:00,71.4,71.1,29.79,East,96,0.0,1.0,99,0.00,,,0.36,Wunderground v.1.15,2013-08-28 14:15:00,
2013-08-28 10:20:00,71.6,71.3,29.79,ESE,102,0.0,0.0,99,0.00,,,0.36,Wunderground v.1.15,2013-08-28 14:20:00,
2013-08-28 10:26:00,71.7,71.1,29.79,East,100,0.0,1.0,98,0.00,,,0.36,Wunderground v.1.15,2013-08-28 14:26:00,
2013-08-28 10:31:00,71.4,70.5,29.79,NNE,26,0.0,0.0,97,0.00,,,0.36,Wunderground v.1.15,2013-08-28 14:31:00,
2013-08-28 10:36:00,71.6,71.0,29.79,ESE,106,0.0,1.0,98,0.00,,,0.36,Wunderground v.1.15,2013-08-28 14:36:00,
2013-08-28 10:41:00,71.6,70.7,29.79,ESE,105,0.0,0.0,97,0.00,,,0.36,Wunderground v.1.15,2013-08-28 14:41:00,
2013-08-28 10:47:00,71.6,70.7,29.79,ESE,106,0.0,0.0,97,0.00,,,0.36,Wunderground v.1.15,2013-08-28 14:47:00,
2013-08-28 10:52:00,71.6,70.7,29.79,ESE,105,0.0,0.0,97,0.00,,,0.36,Wunderground v.1.15,2013-08-28 14:52:00,
2013-08-28 10:58:00,71.6,70.7,29.79,SW,233,0.0,0.0,97,0.00,,,0.36,Wunderground v.1.15,2013-08-28 14:58:00,
2013-08-28 11:03:00,71.9,71.0,29.79,SW,232,0.0,0.0,97,0.00,,,0.36,Wunderground v.1.15,2013-08-28 15:03:00,
2013-08-28 11:09:00,72.1,71.2,29.79,SE,125,0.0,1.0,97,0.00,,,0.36,Wunderground v.1.15,2013-08-28 15:09:00,
2013-08-28 11:14:00,72.3,71.4,29.79,SE,125,0.0,1.0,97,0.00,,,0.36,Wunderground v.1.15,2013-08-28 15:14:00,
2013-08-28 11:19:00,72.2,71.0,29.79,SW,229,0.0,1.0,96,0.00,,,0.36,Wunderground v.1.15,2013-08-28 15:19:00,
2013-08-28 11:24:00,72.2,71.0,29.79,South,178,0.0,0.0,96,0.00,,,0.36,Wunderground v.1.15,2013-08-28 15:24:00,
2013-08-28 11:30:00,72.3,71.1,29.79,South,177,0.0,0.0,96,0.00,,,0.36,Wunderground v.1.15,2013-08-28 15:30:00,
2013-08-28 11:35:00,72.4,71.2,29.79,South,180,0.0,0.0,96,0.00,,,0.36,Wunderground v.1.15,2013-08-28 15:35:00,
2013-08-28 11:40:00,72.4,71.2,29.79,WSW,243,0.0,0.0,96,0.00,,,0.36,Wunderground v.1.15,2013-08-28 15:40:00,
2013-08-28 11:45:00,72.7,71.5,29.79,WSW,243,0.0,0.0,96,0.00,,,0.36,Wunderground v.1.15,2013-08-28 15:45:00,
2013-08-28 11:51:00,73.0,71.8,29.79,WSW,243,0.0,0.0,96,0.00,,,0.36,Wunderground v.1.15,2013-08-28 15:51:00,
2013-08-28 11:56:00,73.1,71.6,29.79,SW,214,0.0,0.0,95,0.00,,,0.36,Wunderground v.1.15,2013-08-28 15:56:00,
2013-08-28 12:01:00,73.2,71.4,29.79,SSW,212,0.0,0.0,94,0.00,,,0.36,Wunderground v.1.15,2013-08-28 16:01:00,
2013-08-28 12:06:00,73.3,71.2,29.79,SW,214,0.0,0.0,93,0.00,,,0.36,Wunderground v.1.15,2013-08-28 16:06:00,
2013-08-28 12:12:00,73.6,71.4,29.79,South,170,0.0,0.0,93,0.00,,,0.36,Wunderground v.1.15,2013-08-28 16:12:00,
2013-08-28 12:17:00,73.9,71.7,29.79,South,171,0.0,0.0,93,0.00,,,0.36,Wunderground v.1.15,2013-08-28 16:17:00,
2013-08-28 12:22:00,73.9,71.1,29.79,SSE,150,0.0,1.0,91,0.00,,,0.36,Wunderground v.1.15,2013-08-28 16:22:00,
2013-08-28 12:28:00,74.1,71.6,29.79,SSE,150,0.0,1.0,92,0.00,,,0.36,Wunderground v.1.15,2013-08-28 16:28:00,
2013-08-28 12:33:00,74.4,71.9,29.79,SSE,150,0.0,0.0,92,0.00,,,0.36,Wunderground v.1.15,2013-08-28 16:33:00,
2013-08-28 12:38:00,74.5,71.7,29.79,SSE,151,0.0,0.0,91,0.00,,,0.36,Wunderground v.1.15,2013-08-28 16:38:00,
2013-08-28 12:43:00,74.7,71.9,29.79,SSE,150,0.0,0.0,91,0.00,,,0.36,Wunderground v.1.15,2013-08-28 16:43:00,
2013-08-28 12:49:00,74.7,72.2,29.79,SSE,151,0.0,0.0,92,0.00,,,0.36,Wunderground v.1.15,2013-08-28 16:49:00,
2013-08-28 12:54:00,74.7,71.9,29.79,SSE,150,0.0,0.0,91,0.00,,,0.36,Wunderground v.1.15,2013-08-28 16:54:00,
2013-08-28 12:59:00,74.5,71.7,29.80,SSE,148,0.0,0.0,91,0.00,,,0.36,Wunderground v.1.15,2013-08-28 16:59:00,
2013-08-28 13:04:00,74.7,72.2,29.79,SSE,149,0.0,0.0,92,0.00,,,0.36,Wunderground v.1.15,2013-08-28 17:04:00,
2013-08-28 13:10:00,74.6,72.1,29.79,SSW,198,0.0,0.0,92,0.00,,,0.36,Wunderground v.1.15,2013-08-28 17:10:00,
2013-08-28 13:15:00,74.4,71.6,29.79,SW,229,0.0,1.0,91,0.00,,,0.36,Wunderground v.1.15,2013-08-28 17:15:00,
2013-08-28 13:20:00,74.3,71.8,29.79,SW,232,0.0,0.0,92,0.00,,,0.36,Wunderground v.1.15,2013-08-28 17:20:00,
2013-08-28 13:25:00,74.2,71.7,29.79,SW,232,0.0,0.0,92,0.00,,,0.36,Wunderground v.1.15,2013-08-28 17:25:00,
2013-08-28 13:31:00,74.1,71.9,29.79,SW,222,0.0,1.0,93,0.00,,,0.36,Wunderground v.1.15,2013-08-28 17:31:00,
2013-08-28 13:36:00,74.2,71.7,29.79,SW,219,0.0,1.0,92,0.00,,,0.36,Wunderground v.1.15,2013-08-28 17:36:00,
2013-08-28 13:42:00,74.2,71.7,29.80,SSW,211,0.0,0.0,92,0.00,,,0.36,Wunderground v.1.15,2013-08-28 17:42:00,
2013-08-28 13:47:00,74.4,71.9,29.79,SSW,211,0.0,0.0,92,0.00,,,0.36,Wunderground v.1.15,2013-08-28 17:47:00,
2013-08-28 13:52:00,74.6,72.1,29.80,SSW,205,0.0,0.0,92,0.00,,,0.36,Wunderground v.1.15,2013-08-28 17:52:00,
2013-08-28 13:57:00,74.5,71.4,29.80,SSE,162,0.0,0.0,90,0.00,,,0.36,Wunderground v.1.15,2013-08-28 17:57:00,
2013-08-28 14:02:00,74.5,71.7,29.80,SSE,162,0.0,0.0,91,0.00,,,0.36,Wunderground v.1.15,2013-08-28 18:02:00,
2013-08-28 14:08:00,74.4,71.6,29.80,SSE,162,0.0,0.0,91,0.00,,,0.36,Wunderground v.1.15,2013-08-28 18:08:00,
2013-08-28 14:13:00,74.4,71.6,29.80,SSE,162,0.0,0.0,91,0.00,,,0.36,Wunderground v.1.15,2013-08-28 18:13:00,
2013-08-28 14:18:00,74.3,71.5,29.80,SSE,162,0.0,0.0,91,0.00,,,0.37,Wunderground v.1.15,2013-08-28 18:18:00,
2013-08-28 14:23:00,74.3,71.8,29.80,SSE,162,0.0,0.0,92,0.11,,,0.38,Wunderground v.1.15,2013-08-28 18:23:00,
2013-08-28 14:28:00,74.2,71.7,29.80,SSE,162,0.0,0.0,92,0.07,,,0.38,Wunderground v.1.15,2013-08-28 18:28:00,
2013-08-28 14:34:00,74.2,72.0,29.80,SSW,208,0.0,0.0,93,0.04,,,0.38,Wunderground v.1.15,2013-08-28 18:34:00,
2013-08-28 14:39:00,74.2,72.0,29.80,SSW,208,0.0,0.0,93,0.00,,,0.38,Wunderground v.1.15,2013-08-28 18:39:00,
2013-08-28 14:44:00,74.0,71.5,29.80,SW,215,0.0,0.0,92,0.00,,,0.38,Wunderground v.1.15,2013-08-28 18:44:00,
2013-08-28 14:50:00,74.3,72.1,29.80,SW,236,0.0,0.0,93,0.00,,,0.38,Wunderground v.1.15,2013-08-28 18:50:00,
2013-08-28 14:55:00,74.6,72.4,29.80,WSW,238,0.0,1.0,93,0.00,,,0.38,Wunderground v.1.15,2013-08-28 18:55:00,
2013-08-28 15:00:00,74.6,72.1,29.80,SW,232,0.0,2.0,92,0.00,,,0.38,Wunderground v.1.15,2013-08-28 19:00:00,
2013-08-28 15:05:00,74.4,71.9,29.80,WSW,243,1.0,4.0,92,0.00,,,0.38,Wunderground v.1.15,2013-08-28 19:05:00,
2013-08-28 15:10:00,74.5,72.3,29.80,SSW,197,0.0,0.0,93,0.00,,,0.38,Wunderground v.1.15,2013-08-28 19:10:00,
2013-08-28 15:16:00,74.8,72.6,29.80,SSW,197,0.0,0.0,93,0.00,,,0.38,Wunderground v.1.15,2013-08-28 19:16:00,
2013-08-28 15:21:00,74.9,72.4,29.80,SSW,197,0.0,0.0,92,0.00,,,0.38,Wunderground v.1.15,2013-08-28 19:21:00,
2013-08-28 15:26:00,74.8,72.3,29.80,SSW,198,0.0,0.0,92,0.00,,,0.38,Wunderground v.1.15,2013-08-28 19:26:00,
2013-08-28 15:32:00,74.5,72.3,29.80,SSW,195,0.0,0.0,93,0.15,,,0.41,Wunderground v.1.15,2013-08-28 19:32:00,
2013-08-28 15:37:00,74.1,72.3,29.80,ESE,103,0.0,1.0,94,0.09,,,0.41,Wunderground v.1.15,2013-08-28 19:37:00,
2013-08-28 15:42:00,73.8,72.3,29.80,ENE,58,0.0,1.0,95,0.05,,,0.41,Wunderground v.1.15,2013-08-28 19:42:00,
2013-08-28 15:47:00,73.6,72.4,29.80,ENE,58,0.0,1.0,96,0.04,,,0.41,Wunderground v.1.15,2013-08-28 19:47:00,
2013-08-28 15:52:00,73.6,72.4,29.80,ENE,57,0.0,0.0,96,0.00,,,0.41,Wunderground v.1.15,2013-08-28 19:52:00,
2013-08-28 15:58:00,73.5,72.3,29.80,WNW,283,0.0,1.0,96,0.00,,,0.41,Wunderground v.1.15,2013-08-28 19:58:00,
2013-08-28 16:03:00,73.3,72.1,29.80,ESE,104,0.0,1.0,96,0.00,,,0.41,Wunderground v.1.15,2013-08-28 20:03:00,
2013-08-28 16:08:00,73.4,72.2,29.80,ESE,105,0.0,1.0,96,0.00,,,0.41,Wunderground v.1.15,2013-08-28 20:08:00,
2013-08-28 16:13:00,73.4,72.2,29.80,ESE,106,0.0,0.0,96,0.00,,,0.41,Wunderground v.1.15,2013-08-28 20:13:00,
2013-08-28 16:19:00,73.5,72.3,29.80,ESE,106,0.0,0.0,96,0.00,,,0.41,Wunderground v.1.15,2013-08-28 20:19:00,
2013-08-28 16:24:00,73.9,73.0,29.80,SW,219,0.0,1.0,97,0.00,,,0.41,Wunderground v.1.15,2013-08-28 20:24:00,
2013-08-28 16:29:00,74.2,73.3,29.80,SW,218,0.0,1.0,97,0.00,,,0.41,Wunderground v.1.15,2013-08-28 20:29:00,
2013-08-28 16:34:00,74.3,73.1,29.80,SW,219,0.0,0.0,96,0.00,,,0.41,Wunderground v.1.15,2013-08-28 20:34:00,
2013-08-28 16:39:00,74.8,73.6,29.80,SW,236,0.0,1.0,96,0.00,,,0.41,Wunderground v.1.15,2013-08-28 20:39:00,
2013-08-28 16:45:00,75.1,73.6,29.80,NW,305,1.0,2.0,95,0.00,,,0.41,Wunderground v.1.15,2013-08-28 20:45:00,
2013-08-28 16:50:00,75.6,72.8,29.81,NW,305,1.0,1.0,91,0.00,,,0.41,Wunderground v.1.15,2013-08-28 20:50:00,
2013-08-28 16:55:00,76.2,73.4,29.81,West,263,1.0,2.0,91,0.00,,,0.41,Wunderground v.1.15,2013-08-28 20:55:00,
2013-08-28 17:00:00,76.6,73.1,29.81,NNE,30,1.0,1.0,89,0.00,,,0.41,Wunderground v.1.15,2013-08-28 21:00:00,
2013-08-28 17:05:00,76.7,72.9,29.81,ESE,105,1.0,2.0,88,0.00,,,0.41,Wunderground v.1.15,2013-08-28 21:05:00,
2013-08-28 17:11:00,76.8,72.3,29.81,West,274,1.0,2.0,86,0.00,,,0.41,Wunderground v.1.15,2013-08-28 21:11:00,
2013-08-28 17:16:00,76.6,72.4,29.81,West,263,1.0,2.0,87,0.00,,,0.41,Wunderground v.1.15,2013-08-28 21:16:00,
2013-08-28 17:21:00,76.4,72.2,29.82,WNW,302,1.0,1.0,87,0.00,,,0.41,Wunderground v.1.15,2013-08-28 21:21:00,
2013-08-28 17:26:00,76.2,72.4,29.82,West,266,1.0,1.0,88,0.00,,,0.41,Wunderground v.1.15,2013-08-28 21:26:00,
2013-08-28 17:32:00,76.0,72.2,29.81,NW,307,1.0,2.0,88,0.00,,,0.41,Wunderground v.1.15,2013-08-28 21:32:00,
2013-08-28 17:37:00,75.8,72.0,29.82,West,274,2.0,4.0,88,0.00,,,0.41,Wunderground v.1.15,2013-08-28 21:37:00,
2013-08-28 17:42:00,75.6,71.5,29.82,NW,308,2.0,3.0,87,0.00,,,0.41,Wunderground v.1.15,2013-08-28 21:42:00,
2013-08-28 17:48:00,75.5,71.4,29.82,WNW,290,2.0,3.0,87,0.00,,,0.41,Wunderground v.1.15,2013-08-28 21:48:00,
2013-08-28 17:53:00,75.7,71.6,29.82,West,281,2.0,2.0,87,0.00,,,0.41,Wunderground v.1.15,2013-08-28 21:53:00,
2013-08-28 17:58:00,75.6,71.1,29.82,NW,305,2.0,3.0,86,0.00,,,0.41,Wunderground v.1.15,2013-08-28 21:58:00,
2013-08-28 18:04:00,75.7,71.6,29.83,NNE,15,2.0,4.0,87,0.00,,,0.41,Wunderground v.1.15,2013-08-28 22:04:00,
2013-08-28 18:09:00,75.6,71.1,29.83,WNW,292,2.0,4.0,86,0.00,,,0.41,Wunderground v.1.15,2013-08-28 22:09:00,
2013-08-28 18:14:00,75.6,71.5,29.83,WNW,286,2.0,3.0,87,0.00,,,0.41,Wunderground v.1.15,2013-08-28 22:14:00,
2013-08-28 18:19:00,75.9,71.4,29.83,North,6,1.0,3.0,86,0.00,,,0.41,Wunderground v.1.15,2013-08-28 22:19:00,
2013-08-28 18:25:00,75.7,71.2,29.83,NNW,328,2.0,4.0,86,0.00,,,0.41,Wunderground v.1.15,2013-08-28 22:25:00,
2013-08-28 18:30:00,75.6,71.1,29.83,North,9,2.0,2.0,86,0.00,,,0.41,Wunderground v.1.15,2013-08-28 22:30:00,
2013-08-28 18:35:00,75.4,71.3,29.83,NW,305,2.0,3.0,87,0.00,,,0.41,Wunderground v.1.15,2013-08-28 22:35:00,
2013-08-28 18:41:00,75.1,71.0,29.83,North,8,2.0,2.0,87,0.00,,,0.41,Wunderground v.1.15,2013-08-28 22:41:00,
2013-08-28 18:46:00,74.9,71.1,29.83,WNW,284,2.0,2.0,88,0.00,,,0.41,Wunderground v.1.15,2013-08-28 22:46:00,
2013-08-28 18:51:00,74.6,70.8,29.83,WNW,284,2.0,3.0,88,0.00,,,0.41,Wunderground v.1.15,2013-08-28 22:51:00,
2013-08-28 18:56:00,74.5,70.7,29.83,WNW,284,2.0,3.0,88,0.00,,,0.41,Wunderground v.1.15,2013-08-28 22:56:00,
2013-08-28 19:01:00,74.3,70.5,29.83,WNW,293,2.0,2.0,88,0.00,,,0.41,Wunderground v.1.15,2013-08-28 23:01:00,
2013-08-28 19:07:00,74.1,70.6,29.84,NW,305,1.0,2.0,89,0.00,,,0.41,Wunderground v.1.15,2013-08-28 23:07:00,
2013-08-28 19:12:00,74.0,70.6,29.84,WSW,255,1.0,1.0,89,0.00,,,0.41,Wunderground v.1.15,2013-08-28 23:12:00,
2013-08-28 19:17:00,73.9,70.5,29.84,ENE,63,1.0,2.0,89,0.00,,,0.41,Wunderground v.1.15,2013-08-28 23:17:00,
2013-08-28 19:22:00,73.9,70.5,29.84,NW,315,1.0,1.0,89,0.00,,,0.41,Wunderground v.1.15,2013-08-28 23:22:00,
2013-08-28 19:28:00,73.8,70.7,29.84,WNW,298,0.0,1.0,90,0.00,,,0.41,Wunderground v.1.15,2013-08-28 23:28:00,
2013-08-28 19:33:00,73.6,70.5,29.84,NW,311,0.0,2.0,90,0.00,,,0.41,Wunderground v.1.15,2013-08-28 23:33:00,
2013-08-28 19:38:00,73.4,70.6,29.84,NW,314,1.0,2.0,91,0.00,,,0.41,Wunderground v.1.15,2013-08-28 23:38:00,
2013-08-28 19:43:00,73.2,70.4,29.84,WNW,300,1.0,1.0,91,0.00,,,0.41,Wunderground v.1.15,2013-08-28 23:43:00,
2013-08-28 19:49:00,72.9,70.1,29.85,WNW,300,1.0,3.0,91,0.00,,,0.41,Wunderground v.1.15,2013-08-28 23:49:00,
2013-08-28 19:54:00,72.7,70.2,29.84,WNW,300,1.0,1.0,92,0.00,,,0.41,Wunderground v.1.15,2013-08-28 23:54:00,
2013-08-28 20:00:00,72.5,70.0,29.85,West,262,0.0,0.0,92,0.00,,,0.41,Wunderground v.1.15,2013-08-29 00:00:00,
2013-08-28 20:05:00,72.3,69.8,29.85,WSW,252,0.0,0.0,92,0.00,,,0.41,Wunderground v.1.15,2013-08-29 00:05:00,
2013-08-28 20:11:00,72.1,70.0,29.85,West,262,0.0,1.0,93,0.00,,,0.41,Wunderground v.1.15,2013-08-29 00:11:00,
2013-08-28 20:16:00,71.9,69.8,29.85,WSW,253,0.0,1.0,93,0.00,,,0.41,Wunderground v.1.15,2013-08-29 00:16:00,
2013-08-28 20:22:00,71.7,69.6,29.86,West,273,0.0,1.0,93,0.00,,,0.41,Wunderground v.1.15,2013-08-29 00:22:00,
2013-08-28 20:27:00,71.6,69.8,29.86,ENE,68,0.0,1.0,94,0.00,,,0.41,Wunderground v.1.15,2013-08-29 00:27:00,
2013-08-28 20:33:00,71.4,69.6,29.86,NE,53,0.0,0.0,94,0.00,,,0.41,Wunderground v.1.15,2013-08-29 00:33:00,
2013-08-28 20:38:00,71.3,69.5,29.86,NE,51,0.0,0.0,94,0.00,,,0.41,Wunderground v.1.15,2013-08-29 00:38:00,
2013-08-28 20:43:00,71.1,69.3,29.87,NE,50,0.0,0.0,94,0.00,,,0.41,Wunderground v.1.15,2013-08-29 00:43:00,
2013-08-28 20:48:00,71.0,69.5,29.87,NNE,32,0.0,0.0,95,0.00,,,0.41,Wunderground v.1.15,2013-08-29 00:48:00,
2013-08-28 20:54:00,70.9,69.4,29.88,NNE,33,0.0,0.0,95,0.00,,,0.41,Wunderground v.1.15,2013-08-29 00:54:00,
2013-08-28 20:59:00,70.8,69.3,29.88,NNE,32,0.0,0.0,95,0.00,,,0.41,Wunderground v.1.15,2013-08-29 00:59:00,
2013-08-28 21:05:00,70.7,69.2,29.88,NNE,32,0.0,0.0,95,0.00,,,0.41,Wunderground v.1.15,2013-08-29 01:05:00,
2013-08-28 21:11:00,70.5,69.3,29.88,NW,308,0.0,0.0,96,0.00,,,0.41,Wunderground v.1.15,2013-08-29 01:11:00,
2013-08-28 21:16:00,70.4,69.2,29.88,NW,308,0.0,0.0,96,0.00,,,0.41,Wunderground v.1.15,2013-08-29 01:16:00,
2013-08-28 21:21:00,70.3,69.1,29.89,NW,308,0.0,0.0,96,0.00,,,0.41,Wunderground v.1.15,2013-08-29 01:21:00,
2013-08-28 21:27:00,70.1,68.9,29.89,NW,308,0.0,0.0,96,0.00,,,0.41,Wunderground v.1.15,2013-08-29 01:27:00,
2013-08-28 21:32:00,69.9,68.7,29.89,NW,308,0.0,0.0,96,0.00,,,0.41,Wunderground v.1.15,2013-08-29 01:32:00,
2013-08-28 21:38:00,69.6,68.4,29.89,NW,308,0.0,0.0,96,0.00,,,0.41,Wunderground v.1.15,2013-08-29 01:38:00,
2013-08-28 21:44:00,69.5,68.3,29.89,NW,308,0.0,0.0,96,0.00,,,0.41,Wunderground v.1.15,2013-08-29 01:44:00,
2013-08-28 21:49:00,69.4,68.2,29.90,WSW,249,0.0,0.0,96,0.00,,,0.41,Wunderground v.1.15,2013-08-29 01:49:00,
2013-08-28 21:55:00,69.4,68.5,29.90,WSW,243,0.0,0.0,97,0.00,,,0.41,Wunderground v.1.15,2013-08-29 01:55:00,
2013-08-28 22:00:00,69.5,68.6,29.90,SW,232,0.0,0.0,97,0.00,,,0.41,Wunderground v.1.15,2013-08-29 02:00:00,
2013-08-28 22:05:00,69.4,68.5,29.90,SW,232,0.0,1.0,97,0.00,,,0.41,Wunderground v.1.15,2013-08-29 02:05:00,
2013-08-28 22:11:00,69.1,68.2,29.90,SW,233,0.0,0.0,97,0.00,,,0.41,Wunderground v.1.15,2013-08-29 02:11:00,
2013-08-28 22:16:00,68.9,68.0,29.91,SW,232,0.0,0.0,97,0.00,,,0.41,Wunderground v.1.15,2013-08-29 02:16:00,
2013-08-28 22:21:00,68.8,67.9,29.90,SW,232,0.0,0.0,97,0.00,,,0.41,Wunderground v.1.15,2013-08-29 02:21:00,
2013-08-28 22:27:00,68.7,67.8,29.91,SW,233,0.0,0.0,97,0.00,,,0.41,Wunderground v.1.15,2013-08-29 02:27:00,
2013-08-28 22:32:00,68.7,67.8,29.91,SW,233,0.0,0.0,97,0.00,,,0.41,Wunderground v.1.15,2013-08-29 02:32:00,
2013-08-28 22:38:00,68.7,67.8,29.91,SW,233,0.0,0.0,97,0.00,,,0.41,Wunderground v.1.15,2013-08-29 02:38:00,
2013-08-28 22:43:00,68.6,67.7,29.91,SW,233,0.0,0.0,97,0.00,,,0.41,Wunderground v.1.15,2013-08-29 02:43:00,
2013-08-28 22:48:00,68.7,68.1,29.91,SW,233,0.0,0.0,98,0.00,,,0.41,Wunderground v.1.15,2013-08-29 02:48:00,
2013-08-28 22:54:00,68.9,68.3,29.91,SW,232,0.0,0.0,98,0.00,,,0.41,Wunderground v.1.15,2013-08-29 02:54:00,
2013-08-28 22:59:00,68.8,68.2,29.91,SW,232,0.0,0.0,98,0.00,,,0.41,Wunderground v.1.15,2013-08-29 02:59:00,
2013-08-28 23:04:00,68.8,68.2,29.91,SW,232,0.0,0.0,98,0.00,,,0.41,Wunderground v.1.15,2013-08-29 03:04:00,
2013-08-28 23:10:00,68.7,68.1,29.91,SW,233,0.0,0.0,98,0.00,,,0.41,Wunderground v.1.15,2013-08-29 03:10:00,
2013-08-28 23:15:00,68.7,68.1,29.91,SW,233,0.0,0.0,98,0.00,,,0.41,Wunderground v.1.15,2013-08-29 03:15:00,
2013-08-28 23:20:00,68.6,68.0,29.91,SW,233,0.0,0.0,98,0.00,,,0.41,Wunderground v.1.15,2013-08-29 03:20:00,
2013-08-28 23:25:00,68.4,67.5,29.91,SW,232,0.0,0.0,97,0.00,,,0.41,Wunderground v.1.15,2013-08-29 03:25:00,
2013-08-28 23:31:00,68.3,67.7,29.91,SW,232,0.0,0.0,98,0.00,,,0.41,Wunderground v.1.15,2013-08-29 03:31:00,
2013-08-28 23:36:00,68.3,67.7,29.91,SW,232,0.0,0.0,98,0.00,,,0.41,Wunderground v.1.15,2013-08-29 03:36:00,
2013-08-28 23:42:00,68.1,67.5,29.91,SW,232,0.0,0.0,98,0.00,,,0.41,Wunderground v.1.15,2013-08-29 03:42:00,
2013-08-28 23:47:00,68.2,67.6,29.91,SW,232,0.0,0.0,98,0.00,,,0.41,Wunderground v.1.15,2013-08-29 03:47:00,
2013-08-28 23:52:00,68.3,67.7,29.91,SW,232,0.0,0.0,98,0.00,,,0.41,Wunderground v.1.15,2013-08-29 03:52:00,
2013-08-28 23:58:00,68.2,67.6,29.91,SW,232,0.0,0.0,98,0.00,,,0.41,Wunderground v.1.15,2013-08-29 03:58:00,